JBU126 KCLT-KMCO

Flight info

Callsign JBU126
Flight time 1h 8m
Altitude 32000
Route ICONS5 NOOKS WURFL Q83 ROYCO Q85 LPERD GTOUT1
Aircraft A320/M-SDE3FGHIRWY/LB1

Departure

Time 2026-04-26 14:25
Airport Charlotte Douglas International Airport (KCLT)

Arrival

Time 2026-04-26 15:34
Airport Orlando International Airport (KMCO)
Time Latitude Longitude Altitude Speed Heading
2026-04-26 13:46 35.21767 -80.94172 732 ft 0 kts 318°
2026-04-26 14:01 35.21755 -80.94158 732 ft 4 kts 318°
2026-04-26 14:01 35.21739 -80.94140 731 ft 4 kts 328°
2026-04-26 14:01 35.21718 -80.94138 731 ft 4 kts 39°
2026-04-26 14:02 35.21700 -80.94160 732 ft 4 kts 48°
2026-04-26 14:02 35.21695 -80.94166 731 ft 0 kts 48°
2026-04-26 14:17 35.21696 -80.94165 732 ft 1 kts 48°
2026-04-26 14:18 35.21697 -80.94164 732 ft 0 kts 48°
2026-04-26 14:19 35.21699 -80.94161 732 ft 1 kts 48°
2026-04-26 14:19 35.21710 -80.94146 731 ft 3 kts 48°
2026-04-26 14:19 35.21730 -80.94118 732 ft 5 kts 48°
2026-04-26 14:19 35.21759 -80.94079 732 ft 7 kts 48°
2026-04-26 14:20 35.21788 -80.94020 732 ft 9 kts 75°
2026-04-26 14:20 35.21782 -80.93966 732 ft 10 kts 115°
2026-04-26 14:20 35.21707 -80.93881 733 ft 12 kts 136°
2026-04-26 14:20 35.21669 -80.93832 733 ft 12 kts 133°
2026-04-26 14:21 35.21606 -80.93745 732 ft 15 kts 130°
2026-04-26 14:21 35.21518 -80.93674 733 ft 16 kts 171°
2026-04-26 14:21 35.21402 -80.93661 733 ft 18 kts 176°
2026-04-26 14:21 35.21276 -80.93649 733 ft 19 kts 174°
2026-04-26 14:22 35.21134 -80.93634 733 ft 21 kts 177°
2026-04-26 14:22 35.20980 -80.93623 733 ft 23 kts 176°
2026-04-26 14:22 35.20813 -80.93609 733 ft 25 kts 175°
2026-04-26 14:22 35.20635 -80.93593 733 ft 26 kts 176°
2026-04-26 14:23 35.20448 -80.93579 733 ft 24 kts 177°
2026-04-26 14:23 35.20305 -80.93570 733 ft 21 kts 175°
2026-04-26 14:23 35.20168 -80.93557 733 ft 19 kts 178°
2026-04-26 14:23 35.20113 -80.93527 733 ft 5 kts 122°
2026-04-26 14:24 35.20105 -80.93483 733 ft 6 kts 88°
2026-04-26 14:24 35.20121 -80.93438 733 ft 6 kts 51°
2026-04-26 14:24 35.20164 -80.93420 734 ft 7 kts
2026-04-26 14:24 35.20285 -80.93428 736 ft 45 kts 357°
2026-04-26 14:25 35.20834 -80.93477 735 ft 109 kts 355°
2026-04-26 14:25 35.21757 -80.93557 741 ft 155 kts 355°
2026-04-26 14:25 35.22845 -80.93659 1313 ft 157 kts 358°
2026-04-26 14:25 35.23890 -80.93378 1997 ft 159 kts 35°
2026-04-26 14:26 35.24542 -80.92209 2453 ft 183 kts 77°
2026-04-26 14:26 35.24411 -80.90574 2775 ft 211 kts 112°
2026-04-26 14:26 35.23407 -80.89122 3127 ft 241 kts 144°
2026-04-26 14:26 35.21747 -80.88455 3552 ft 266 kts 179°
2026-04-26 14:27 35.19874 -80.88734 4286 ft 275 kts 188°
2026-04-26 14:27 35.17973 -80.89121 5156 ft 279 kts 189°
2026-04-26 14:27 35.16047 -80.89521 6004 ft 283 kts 189°
2026-04-26 14:27 35.14094 -80.89925 6829 ft 287 kts 189°
2026-04-26 14:28 35.12118 -80.90331 7628 ft 290 kts 190°
2026-04-26 14:28 35.10152 -80.90727 8417 ft 293 kts 190°
2026-04-26 14:28 35.08121 -80.91129 9235 ft 295 kts 190°
2026-04-26 14:28 35.06087 -80.91526 10061 ft 297 kts 191°
2026-04-26 14:29 35.04009 -80.91933 10494 ft 313 kts 191°
2026-04-26 14:29 35.01781 -80.92370 10718 ft 333 kts 191°
2026-04-26 14:29 34.99454 -80.92823 11258 ft 341 kts 191°
2026-04-26 14:29 34.97095 -80.93282 11925 ft 345 kts 191°
2026-04-26 14:30 34.94715 -80.93746 12623 ft 349 kts 191°
2026-04-26 14:30 34.92306 -80.94215 13335 ft 352 kts 191°
2026-04-26 14:30 34.89878 -80.94686 13977 ft 355 kts 191°
2026-04-26 14:30 34.87426 -80.95165 14556 ft 358 kts 191°
2026-04-26 14:31 34.84953 -80.95648 15127 ft 361 kts 191°
2026-04-26 14:31 34.82460 -80.96136 15699 ft 364 kts 192°
2026-04-26 14:31 34.79953 -80.96619 16269 ft 367 kts 190°
2026-04-26 14:31 34.77373 -80.96789 16826 ft 373 kts 184°
2026-04-26 14:32 34.74772 -80.96868 17391 ft 376 kts 185°
2026-04-26 14:32 34.72149 -80.96947 17950 ft 379 kts 185°
2026-04-26 14:32 34.69497 -80.97029 18476 ft 383 kts 185°
2026-04-26 14:32 34.66812 -80.97112 18996 ft 386 kts 185°
2026-04-26 14:33 34.64146 -80.97196 19523 ft 389 kts 186°
2026-04-26 14:33 34.61396 -80.97290 20058 ft 391 kts 187°
2026-04-26 14:33 34.58708 -80.97463 20559 ft 393 kts 188°
2026-04-26 14:33 34.55980 -80.97711 21048 ft 395 kts 189°
2026-04-26 14:34 34.53205 -80.98003 21526 ft 397 kts 190°
2026-04-26 14:34 34.50472 -80.98302 21991 ft 400 kts 190°
2026-04-26 14:34 34.47702 -80.98599 22498 ft 402 kts 190°
2026-04-26 14:34 34.44901 -80.98886 22970 ft 404 kts 190°
2026-04-26 14:35 34.42087 -80.99160 23443 ft 407 kts 190°
2026-04-26 14:35 34.39262 -80.99421 23849 ft 409 kts 190°
2026-04-26 14:35 34.36412 -80.99681 24237 ft 411 kts 190°
2026-04-26 14:35 34.33557 -80.99944 24621 ft 413 kts 190°
2026-04-26 14:36 34.30679 -81.00208 24998 ft 416 kts 190°
2026-04-26 14:36 34.27782 -81.00476 25384 ft 418 kts 190°
2026-04-26 14:36 34.24882 -81.00745 25773 ft 420 kts 190°
2026-04-26 14:36 34.21956 -81.01019 26144 ft 423 kts 190°
2026-04-26 14:37 34.19016 -81.01295 26509 ft 425 kts 189°
2026-04-26 14:37 34.16058 -81.01572 26861 ft 427 kts 189°
2026-04-26 14:37 34.13090 -81.01849 27192 ft 429 kts 190°
2026-04-26 14:37 34.10103 -81.02127 27535 ft 432 kts 190°
2026-04-26 14:38 34.07091 -81.02404 27877 ft 434 kts 189°
2026-04-26 14:38 34.04068 -81.02678 28222 ft 437 kts 189°
2026-04-26 14:38 34.01024 -81.02955 28559 ft 440 kts 189°
2026-04-26 14:38 33.97963 -81.03226 28897 ft 443 kts 189°
2026-04-26 14:39 33.94872 -81.03369 29233 ft 448 kts 186°
2026-04-26 14:39 33.91738 -81.03375 29560 ft 452 kts 185°
2026-04-26 14:39 33.88584 -81.03299 29884 ft 455 kts 184°
2026-04-26 14:39 33.85406 -81.03193 30166 ft 458 kts 184°
2026-04-26 14:40 33.82256 -81.03096 30438 ft 460 kts 184°
2026-04-26 14:40 33.79055 -81.03024 30794 ft 460 kts 185°
2026-04-26 14:40 33.75851 -81.02976 31140 ft 461 kts 186°
2026-04-26 14:40 33.72639 -81.02951 31489 ft 462 kts 186°
2026-04-26 14:41 33.69412 -81.02934 31829 ft 463 kts 186°
2026-04-26 14:41 33.66189 -81.02917 31939 ft 462 kts 186°
2026-04-26 14:41 33.63005 -81.02887 31960 ft 455 kts 186°
2026-04-26 14:42 33.56702 -81.02827 31963 ft 452 kts 186°
2026-04-26 14:42 33.50408 -81.02770 31959 ft 452 kts 186°
2026-04-26 14:43 33.44109 -81.02716 31977 ft 453 kts 186°
2026-04-26 14:43 33.37798 -81.02665 31963 ft 453 kts 186°
2026-04-26 14:44 33.31495 -81.02613 31961 ft 454 kts 186°
2026-04-26 14:44 33.25169 -81.02554 31951 ft 454 kts 186°
2026-04-26 14:45 33.18852 -81.02490 31938 ft 454 kts 186°
2026-04-26 14:45 33.12522 -81.02420 31944 ft 455 kts 186°
2026-04-26 14:46 33.06188 -81.02362 31942 ft 455 kts 186°
2026-04-26 14:46 32.99897 -81.02313 31943 ft 455 kts 186°
2026-04-26 14:47 32.93548 -81.02261 31947 ft 456 kts 186°
2026-04-26 14:47 32.87197 -81.02200 31946 ft 456 kts 186°
2026-04-26 14:48 32.80858 -81.02147 31940 ft 456 kts 186°
2026-04-26 14:48 32.74511 -81.02083 31939 ft 456 kts 186°
2026-04-26 14:49 32.68154 -81.02017 31932 ft 456 kts 186°
2026-04-26 14:49 32.61803 -81.01962 31933 ft 457 kts 186°
2026-04-26 14:50 32.55446 -81.01908 31936 ft 457 kts 186°
2026-04-26 14:50 32.49093 -81.01893 31935 ft 456 kts 187°
2026-04-26 14:51 32.42754 -81.02020 31934 ft 456 kts 187°
2026-04-26 14:51 32.36411 -81.02179 31939 ft 456 kts 187°
2026-04-26 14:52 32.30111 -81.02306 31944 ft 456 kts 187°
2026-04-26 14:52 32.23754 -81.02411 31947 ft 457 kts 187°
2026-04-26 14:53 32.17399 -81.02518 31946 ft 457 kts 187°
2026-04-26 14:53 32.11049 -81.02627 31914 ft 457 kts 187°
2026-04-26 14:54 32.04692 -81.02734 31909 ft 457 kts 187°
2026-04-26 14:54 31.98334 -81.02852 31906 ft 457 kts 187°
2026-04-26 14:55 31.91975 -81.03021 31901 ft 457 kts 187°
2026-04-26 14:55 31.85616 -81.03217 31901 ft 457 kts 187°
2026-04-26 14:56 31.79247 -81.03401 31913 ft 458 kts 187°
2026-04-26 14:56 31.72918 -81.03567 31915 ft 458 kts 187°
2026-04-26 14:57 31.66541 -81.03741 31921 ft 459 kts 187°
2026-04-26 14:57 31.60198 -81.04214 31927 ft 451 kts 198°
2026-04-26 14:58 31.54390 -81.06535 31923 ft 435 kts 215°
2026-04-26 14:58 31.49045 -81.09840 31931 ft 435 kts 215°
2026-04-26 14:59 31.43682 -81.13136 31934 ft 436 kts 215°
2026-04-26 14:59 31.38290 -81.16420 31941 ft 436 kts 215°
2026-04-26 15:00 31.32875 -81.19666 31944 ft 438 kts 214°
2026-04-26 15:00 31.27477 -81.22852 31944 ft 438 kts 214°
2026-04-26 15:01 31.22027 -81.26055 31942 ft 440 kts 212°
2026-04-26 15:01 31.16067 -81.28092 31943 ft 456 kts 192°
2026-04-26 15:02 31.09666 -81.28241 31942 ft 462 kts 185°
2026-04-26 15:02 31.03214 -81.28219 31938 ft 463 kts 185°
2026-04-26 15:03 30.96773 -81.28205 31941 ft 463 kts 185°
2026-04-26 15:03 30.90324 -81.28185 31955 ft 463 kts 185°
2026-04-26 15:04 30.83880 -81.28168 31964 ft 464 kts 185°
2026-04-26 15:04 30.77464 -81.28151 31969 ft 464 kts 185°
2026-04-26 15:05 30.71013 -81.28137 31971 ft 464 kts 185°
2026-04-26 15:05 30.64561 -81.28124 31972 ft 464 kts 185°
2026-04-26 15:06 30.58104 -81.28062 31971 ft 465 kts 183°
2026-04-26 15:06 30.51647 -81.27628 31969 ft 464 kts 180°
2026-04-26 15:06 30.48464 -81.27322 31884 ft 452 kts 180°
2026-04-26 15:07 30.42288 -81.26740 31215 ft 441 kts 180°
2026-04-26 15:07 30.39230 -81.26488 30814 ft 438 kts 180°
2026-04-26 15:07 30.36200 -81.26258 30429 ft 436 kts 181°
2026-04-26 15:08 30.33184 -81.26043 30035 ft 433 kts 181°
2026-04-26 15:08 30.30183 -81.25833 29598 ft 431 kts 181°
2026-04-26 15:08 30.27203 -81.25624 29208 ft 427 kts 181°
2026-04-26 15:08 30.24257 -81.25412 28833 ft 423 kts 180°
2026-04-26 15:09 30.21326 -81.25196 28467 ft 420 kts 180°
2026-04-26 15:09 30.18422 -81.24977 28129 ft 416 kts 180°
2026-04-26 15:09 30.15550 -81.24757 27765 ft 412 kts 180°
2026-04-26 15:09 30.12698 -81.24539 27396 ft 409 kts 180°
2026-04-26 15:10 30.09870 -81.24325 27050 ft 405 kts 180°
2026-04-26 15:10 30.08957 -81.24257 26927 ft 404 kts 180°
2026-04-26 15:10 30.05220 -81.23978 26452 ft 400 kts 180°
2026-04-26 15:10 30.02454 -81.23774 26085 ft 396 kts 180°
2026-04-26 15:11 29.98836 -81.23507 25627 ft 392 kts 180°
2026-04-26 15:11 29.96122 -81.23304 25275 ft 389 kts 180°
2026-04-26 15:11 29.93430 -81.23102 24925 ft 385 kts 180°
2026-04-26 15:11 29.91631 -81.22967 24688 ft 383 kts 180°
2026-04-26 15:12 29.88123 -81.22703 24226 ft 379 kts 180°
2026-04-26 15:12 29.86386 -81.22574 24000 ft 377 kts 180°
2026-04-26 15:12 29.83781 -81.22383 23664 ft 374 kts 180°
2026-04-26 15:12 29.81192 -81.22195 23273 ft 371 kts 180°
2026-04-26 15:13 29.78631 -81.22006 22860 ft 369 kts 180°
2026-04-26 15:13 29.76070 -81.21813 22449 ft 366 kts 180°
2026-04-26 15:13 29.73530 -81.21622 22040 ft 364 kts 180°
2026-04-26 15:13 29.71013 -81.21434 21631 ft 362 kts 180°
2026-04-26 15:14 29.68504 -81.21241 21241 ft 360 kts 179°
2026-04-26 15:14 29.66002 -81.21031 20843 ft 359 kts 179°
2026-04-26 15:14 29.63522 -81.20816 20465 ft 357 kts 179°
2026-04-26 15:14 29.61058 -81.20601 20088 ft 355 kts 179°
2026-04-26 15:15 29.58602 -81.20385 19719 ft 353 kts 179°
2026-04-26 15:15 29.56153 -81.20170 19358 ft 352 kts 179°
2026-04-26 15:15 29.53712 -81.19957 18997 ft 350 kts 179°
2026-04-26 15:15 29.51289 -81.19748 18652 ft 348 kts 179°
2026-04-26 15:16 29.48877 -81.19543 18311 ft 347 kts 179°
2026-04-26 15:16 29.46476 -81.19337 17923 ft 345 kts 179°
2026-04-26 15:16 29.44085 -81.19132 17555 ft 343 kts 179°
2026-04-26 15:16 29.41709 -81.18929 17206 ft 341 kts 179°
2026-04-26 15:17 29.39382 -81.18731 16856 ft 339 kts 179°
2026-04-26 15:17 29.37796 -81.18598 16626 ft 338 kts 179°
2026-04-26 15:17 29.34675 -81.18333 16177 ft 335 kts 178°
2026-04-26 15:17 29.32388 -81.18137 15852 ft 333 kts 178°
2026-04-26 15:18 29.30089 -81.17939 15524 ft 330 kts 178°
2026-04-26 15:18 29.27806 -81.17740 15204 ft 328 kts 178°
2026-04-26 15:18 29.25535 -81.17540 14901 ft 326 kts 178°
2026-04-26 15:18 29.23276 -81.17342 14592 ft 324 kts 178°
2026-04-26 15:19 29.21032 -81.17144 14290 ft 322 kts 178°
2026-04-26 15:19 29.18815 -81.16838 13994 ft 322 kts 169°
2026-04-26 15:19 29.16678 -81.16049 13681 ft 322 kts 161°
2026-04-26 15:19 29.14585 -81.15149 13326 ft 320 kts 161°
2026-04-26 15:20 29.12506 -81.14260 13000 ft 318 kts 161°
2026-04-26 15:20 29.10443 -81.13381 12674 ft 316 kts 161°
2026-04-26 15:20 29.08391 -81.12506 12348 ft 314 kts 161°
2026-04-26 15:20 29.06343 -81.11632 12027 ft 312 kts 161°
2026-04-26 15:21 29.04316 -81.10770 11715 ft 310 kts 162°
2026-04-26 15:21 29.02290 -81.09955 11406 ft 308 kts 163°
2026-04-26 15:21 29.00264 -81.09184 11108 ft 306 kts 164°
2026-04-26 15:21 28.98245 -81.08435 10803 ft 304 kts 165°
2026-04-26 15:22 28.96188 -81.07985 10508 ft 299 kts 177°
2026-04-26 15:22 28.94117 -81.07767 10190 ft 298 kts 177°
2026-04-26 15:22 28.92060 -81.07536 9905 ft 296 kts 177°
2026-04-26 15:22 28.90046 -81.07357 9764 ft 286 kts 184°
2026-04-26 15:23 28.88119 -81.07671 9643 ft 274 kts 199°
2026-04-26 15:23 28.86409 -81.08502 9506 ft 262 kts 214°
2026-04-26 15:23 28.84950 -81.09638 9380 ft 253 kts 218°
2026-04-26 15:23 28.83508 -81.10788 9243 ft 245 kts 218°
2026-04-26 15:24 28.82151 -81.11864 8954 ft 237 kts 218°
2026-04-26 15:24 28.80810 -81.12929 8538 ft 235 kts 218°
2026-04-26 15:24 28.79472 -81.13993 8215 ft 229 kts 218°
2026-04-26 15:24 28.78212 -81.15044 7921 ft 221 kts 221°
2026-04-26 15:25 28.77029 -81.16148 7547 ft 219 kts 223°
2026-04-26 15:25 28.76244 -81.16894 7306 ft 216 kts 223°
2026-04-26 15:25 28.74754 -81.18314 6749 ft 208 kts 223°
2026-04-26 15:25 28.73645 -81.19380 6228 ft 206 kts 223°
2026-04-26 15:26 28.72556 -81.20424 5712 ft 204 kts 223°
2026-04-26 15:26 28.71476 -81.21465 5187 ft 202 kts 223°
2026-04-26 15:26 28.70411 -81.22489 4685 ft 200 kts 222°
2026-04-26 15:26 28.69353 -81.23518 4162 ft 199 kts 223°
2026-04-26 15:27 28.68313 -81.24530 3803 ft 191 kts 223°
2026-04-26 15:27 28.67350 -81.25465 3673 ft 173 kts 223°
2026-04-26 15:27 28.66470 -81.26311 3539 ft 159 kts 222°
2026-04-26 15:27 28.65651 -81.27109 3305 ft 153 kts 224°
2026-04-26 15:28 28.64845 -81.27894 3042 ft 152 kts 222°
2026-04-26 15:28 28.64048 -81.28676 2782 ft 151 kts 223°
2026-04-26 15:28 28.63250 -81.29457 2566 ft 152 kts 223°
2026-04-26 15:28 28.62457 -81.30237 2367 ft 149 kts 223°
2026-04-26 15:29 28.61669 -81.31013 2218 ft 150 kts 222°
2026-04-26 15:29 28.60884 -81.31806 2206 ft 151 kts 222°
2026-04-26 15:29 28.59036 -81.32854 2219 ft 154 kts 183°
2026-04-26 15:30 28.57006 -81.32830 2212 ft 146 kts 183°
2026-04-26 15:30 28.56014 -81.32818 2166 ft 144 kts 182°
2026-04-26 15:30 28.55032 -81.32807 2030 ft 143 kts 182°
2026-04-26 15:31 28.54043 -81.32790 1912 ft 142 kts 184°
2026-04-26 15:31 28.52079 -81.32730 1573 ft 141 kts 183°
2026-04-26 15:31 28.51094 -81.32734 1389 ft 141 kts 185°
2026-04-26 15:32 28.49452 -81.32731 1119 ft 142 kts 181°
2026-04-26 15:32 28.48189 -81.32731 881 ft 143 kts 185°
2026-04-26 15:32 28.47211 -81.32720 688 ft 141 kts 184°
2026-04-26 15:33 28.46243 -81.32713 431 ft 140 kts 187°
2026-04-26 15:33 28.45261 -81.32697 249 ft 140 kts 184°
2026-04-26 15:33 28.44302 -81.32689 111 ft 140 kts 182°
2026-04-26 15:33 28.43451 -81.32689 102 ft 94 kts 178°
2026-04-26 15:34 28.43074 -81.32684 100 ft 46 kts 180°
2026-04-26 15:34 28.42760 -81.32683 100 ft 45 kts 177°
2026-04-26 15:34 28.42595 -81.32567 99 ft 16 kts 118°
2026-04-26 15:34 28.42540 -81.32458 101 ft 17 kts 117°
2026-04-26 15:35 28.42479 -81.32338 102 ft 18 kts 120°
2026-04-26 15:35 28.42417 -81.32213 105 ft 18 kts 119°
2026-04-26 15:35 28.42352 -81.32077 104 ft 21 kts 121°
2026-04-26 15:35 28.42293 -81.31983 101 ft 15 kts 125°
2026-04-26 15:36 28.42251 -81.31838 100 ft 21 kts 104°
2026-04-26 15:36 28.42154 -81.31782 100 ft 18 kts 181°
2026-04-26 15:36 28.42020 -81.31791 98 ft 21 kts 179°
2026-04-26 15:36 28.41870 -81.31790 100 ft 23 kts 180°
2026-04-26 15:37 28.41700 -81.31794 98 ft 24 kts 176°
2026-04-26 15:37 28.41645 -81.31648 96 ft 23 kts 94°
2026-04-26 15:37 28.41644 -81.31463 94 ft 23 kts 105°
2026-04-26 15:37 28.41631 -81.31415 96 ft 0 kts 106°